This is the latest recevied weather packets stored in our database for station/object WB5LFS-1. If no packets are shown the sender has not sent any weather packets the latest 1 day(s).
| Time | Temp. | Humidity | Pressure | Rain* | Wind** | Luminosity | Snow |
|---|---|---|---|---|---|---|---|
| 1777966009 | 16.67° C | 69% | 1013.9 hPa | 0 mm | 0.45 m/s, 0° | - | - |
| 1777965109 | 16.67° C | 69% | 1013.7 hPa | 0 mm | 0 m/s | - | - |
| 1777964209 | 16.67° C | 69% | 1013.7 hPa | 0 mm | 0 m/s | - | - |
| 1777963309 | 16.67° C | 69% | 1013.7 hPa | 0 mm | 0 m/s | - | - |
| 1777962409 | 17.22° C | 68% | 1013.7 hPa | 0 mm | 0 m/s | - | - |
| 1777961509 | 17.22° C | 68% | 1013.8 hPa | 0 mm | 0.45 m/s, 0° | - | - |
| 1777960609 | 17.78° C | 67% | 1013.7 hPa | 0 mm | 0.45 m/s, 0° | - | - |
| 1777959709 | 17.78° C | 67% | 1013.7 hPa | 0 mm | 0.45 m/s, 0° | - | - |
| 1777958809 | 17.78° C | 67% | 1013.9 hPa | 0 mm | 0.45 m/s, 0° | - | - |
| 1777957909 | 17.78° C | 68% | 1013.8 hPa | 0 mm | 0 m/s | - | - |
| 1777957009 | 17.78° C | 67% | 1013.8 hPa | 0 mm | 0.45 m/s, 0° | - | - |
| 1777956109 | 17.78° C | 67% | 1013.7 hPa | 0 mm | 0.45 m/s, 0° | - | - |
| 1777955209 | 18.33° C | 67% | 1013.7 hPa | 0 mm | 0.45 m/s, 0° | - | - |
| 1777954309 | 17.78° C | 68% | 1013.8 hPa | 0 mm | 0.45 m/s, 0° | - | - |
| 1777953409 | 17.78° C | 67% | 1013.6 hPa | 0 mm | 0 m/s | - | - |
| 1777952509 | 18.33° C | 65% | 1013.6 hPa | 0 mm | 0 m/s | - | - |
| 1777951609 | 18.33° C | 62% | 1013.4 hPa | 0 mm | 0.45 m/s, 0° | - | - |
| 1777950709 | 18.33° C | 60% | 1013.4 hPa | 0 mm | 0.45 m/s, 0° | - | - |
| 1777949809 | 18.33° C | 59% | 1013.3 hPa | 0 mm | 0 m/s | - | - |
| 1777948909 | 18.33° C | 61% | 1013.2 hPa | 0 mm | 0 m/s | - | - |
| 1777948009 | 18.33° C | 61% | 1012.9 hPa | 0 mm | 0 m/s | - | - |
| 1777947109 | 18.33° C | 61% | 1012.6 hPa | 0 mm | 0 m/s | - | - |
| 1777946209 | 18.33° C | 62% | 1012.6 hPa | 0 mm | 0 m/s | - | - |
* Rain latest hour (hover to see other rain measurements)
** Current wind speed in m/s (hover to see current wind gust speed)